Theta_e
285 284 283 283 283 282 282 283 284 286 286 286 287 287 287 287 287 288 288 288 289 289
284 284 283 283 283 282 283 285 285 286 285 286 286 286 286 286 286 287 287 287 288 288
284 284 283 283 281 281 283 285 285 285 285 285 285 285 286 285 286 286 286 287 287 287
283 283 282 282 281 281 283 284 284 284 284 284 284 285 285 285 285 285 286 286 286 286
283 282 281 280 280 281 281 282 284 284 284 284 285 285 285 284 285 284 284 285 286 286
281 279 273 272 275 278 277 278 282 285 284 284 284 284 285 285 285 285 285 285 285 286
278 277 273 270 277 274 275 279 283 284 283 283 284 284 285 285 285 285 286 286 286 286
272 271 269 267 272 283 283 277 284 283 283 283 283 284 286 285 283 283 285 286 286 285
267 267 266 264 268 277 281 273 277 279 281 281 283 287 288 286 281 282 283 283 284 286
265 266 264 264 265 270 270 269 270 273 276 279 281 287 287 285 281 280 281 283 284 284
267 266 264 264 266 266 267 269 270 269 269 271 276 286 287 284 277 277 277 280 283 283
270 269 264 266 266 266 268 270 269 270 268 269 271 283 285 281 276 277 276 278 280 283
271 270 268 268 266 267 267 272 274 274 268 269 270 279 284 282 278 274 276 274 279 282
271 270 270 270 270 271 270 271 268 272 270 269 270 271 282 283 275 272 274 275 276 279
Wind_Speed
3 3 3 4 4 4 4 5 6 6 7 8 9 8 8 7 7 9 8 11 9 9
3 3 3 5 4 3 4 6 8 8 8 8 9 9 9 7 9 10 10 10 11 10
2 2 3 3 4 5 5 6 7 8 8 8 9 9 9 8 9 10 9 9 11 11
3 1 2 3 4 4 5 6 7 8 8 9 9 9 9 10 11 12 12 12 12 14
2 0 2 4 5 5 5 6 6 8 9 9 9 10 10 11 10 11 12 12 12 13
3 1 2 4 5 5 5 6 6 7 8 9 9 10 10 10 11 12 12 13 12 12
4 3 3 3 5 4 3 5 4 6 8 8 9 10 10 10 10 11 11 10 8 9
4 2 2 2 5 5 2 4 4 5 8 8 8 8 8 7 8 9 10 8 6 7
3 2 1 2 4 6 2 4 3 5 7 8 7 17 15 11 5 9 8 8 9 8
4 4 4 3 3 6 3 2 3 5 5 7 8 17 16 13 5 6 8 8 8 9
6 5 4 3 4 5 3 3 3 3 5 5 6 15 16 15 6 5 6 9 10 10
7 6 5 5 4 4 3 3 2 2 4 4 6 14 15 10 5 6 6 7 9 10
8 7 7 6 5 4 3 4 2 3 2 4 5 11 12 9 5 4 5 5 8 16
7 8 7 5 5 3 3 1 2 3 4 3 3 6 8 8 1 2 4 4 6 6
Wind_Direction
237 236 264 281 302 289 291 305 302 313 318 306 302 295 287 282 278 275 273 272 265 266
227 268 286 297 290 297 297 310 322 303 301 297 295 293 287 278 275 272 272 269 268 265
224 262 285 308 328 314 289 310 306 302 302 300 295 291 285 280 275 273 271 268 266 264
208 265 310 340 324 298 296 304 303 306 303 300 295 289 281 276 276 273 273 268 266 268
155 351 350 333 307 302 297 297 299 300 301 299 301 297 288 283 281 278 276 275 271 269
168 198 288 293 298 301 299 297 297 311 318 312 304 300 295 287 283 279 273 270 268 271
185 219 259 287 289 297 304 304 318 325 315 312 310 300 294 293 300 302 282 269 259 264
181 228 281 332 300 285 330 304 312 312 321 320 318 311 328 322 325 319 317 307 258 254
164 209 256 289 288 285 283 307 307 299 329 318 311 323 350 351 323 343 331 330 322 287
166 212 225 238 277 268 253 305 301 292 307 310 306 344 359 0 349 346 339 337 337 328
170 212 216 236 240 267 260 230 244 290 294 303 301 348 5 5 346 340 336 345 342 340
177 204 197 220 238 255 265 278 285 269 313 322 318 344 5 13 344 348 343 340 340 348
178 195 206 201 208 230 206 241 252 291 283 298 316 336 5 19 343 338 342 324 344 358
184 191 209 198 188 207 239 222 300 283 299 310 297 311 12 18 343 318 326 336 353 347